Location: ????
(30.2663°N, 31.2484°E)
Time: 16:47:33
(UTC+00:00)

CZ-2C R/B - Pass Details

Date: 26 March 2023
Orbit: 784 x 869 km, 98.3° (Epoch: 04 June)

Event Time Altitude Azimuth Distance (km) Brightness Sun altitude
Exits shadow 02:16:58 34° 291° (WNW) 1,382 3.4 -21.1°
Drops below altitude 10° 02:20:54 10° 330° (NNW) 2,506 5.0 -20.3°
Sets 02:23:27 0° 338° (NNW) 3,439 5.8 -19.8°
